User: anonymous   Login
Location: Unspecified
(0.0000°N, 0.0000°E)
Time: 04:52:04
(UTC+00:00)
Language:

Vela 3B - Orbit

View from above orbital plane
View from above orbital plane
View from above satellite
View from above satellite

Ground track
Ground track

The orbit data is extracted from the following two-line orbital elements,

1  1459U 65058B   17190.20531933 -.00000721 +00000-0 +00000-0 0  9998
2  1459 011.5828 056.5712 4678221 311.9165 359.6380 00.21452497041056
Epoch (UTC): 09 July 2017 04:55:39
Eccentricity: 0.4678221
inclination: 11.5828°
perigee height: 56351 km
apogee height: 166637 km
right ascension of ascending node: 56.5712°
argument of perigee: 311.9165°
revolutions per day: 0.21452497
mean anomaly at epoch: 359.6380°
orbit number at epoch: 4105

The dashed part of the orbit path shows where the satellite is in the earth's shadow,  

DLR